Time,TemperatureF,DewpointF,PressureIn,WindDirection,WindDirectionDegrees,WindSpeedMPH,WindSpeedGustMPH,Humidity,HourlyPrecipIn,Conditions,Clouds,dailyrainin,SoftwareType,DateUTC
2013-04-03 00:00:00,41.2,35.2,30.21,NNE,24,2.0,9.0,79,0.00,,---,0.00,VWS V14.01,2013-04-03 06:00:00,
2013-04-03 00:05:00,41.2,35.2,30.21,NNE,31,0.0,0.0,79,0.00,,---,0.00,VWS V14.01,2013-04-03 06:05:00,
2013-04-03 00:10:00,41.3,35.3,30.20,NE,36,4.0,7.0,79,0.00,,---,0.00,VWS V14.01,2013-04-03 06:10:00,
2013-04-03 00:15:00,41.4,35.1,30.20,NE,46,0.0,7.0,78,0.00,,---,0.00,VWS V14.01,2013-04-03 06:15:00,
2013-04-03 00:20:00,41.5,34.5,30.20,NNE,17,5.0,9.0,76,0.00,,---,0.00,VWS V14.01,2013-04-03 06:20:00,
2013-04-03 00:25:00,41.6,34.6,30.20,NE,47,3.0,9.0,76,0.00,,---,0.00,VWS V14.01,2013-04-03 06:25:00,
2013-04-03 00:30:00,41.7,34.4,30.19,NE,46,4.0,9.0,75,0.00,,---,0.00,VWS V14.01,2013-04-03 06:30:00,
2013-04-03 00:35:00,41.8,34.1,30.19,NNE,33,5.0,7.0,74,0.00,,---,0.00,VWS V14.01,2013-04-03 06:35:00,
2013-04-03 00:40:00,41.8,34.5,30.19,NE,45,5.0,8.0,75,0.00,,---,0.00,VWS V14.01,2013-04-03 06:40:00,
2013-04-03 00:45:00,41.9,34.6,30.20,NNE,23,0.0,8.0,75,0.00,,---,0.00,VWS V14.01,2013-04-03 06:45:00,
2013-04-03 00:50:00,41.9,33.9,30.20,ENE,57,5.0,8.0,73,0.00,,---,0.00,VWS V14.01,2013-04-03 06:50:00,
2013-04-03 00:55:00,42.0,34.0,30.20,ENE,57,8.0,8.0,73,0.00,,---,0.00,VWS V14.01,2013-04-03 06:55:00,
2013-04-03 01:00:00,42.0,33.6,30.19,NE,50,5.0,8.0,72,0.00,,---,0.00,VWS V14.01,2013-04-03 07:00:00,
2013-04-03 01:05:00,42.1,34.4,30.19,NE,36,2.0,4.0,74,0.00,,---,0.00,VWS V14.01,2013-04-03 07:05:00,
2013-04-03 01:10:00,42.1,34.1,30.19,ENE,59,7.0,8.0,73,0.00,,---,0.00,VWS V14.01,2013-04-03 07:10:00,
2013-04-03 01:15:00,42.2,33.8,30.18,NNE,22,3.0,8.0,72,0.00,,---,0.00,VWS V14.01,2013-04-03 07:15:00,
2013-04-03 01:20:00,42.2,34.2,30.18,NE,34,4.0,8.0,73,0.00,,---,0.00,VWS V14.01,2013-04-03 07:20:00,
2013-04-03 01:25:00,42.2,34.2,30.17,NNE,23,4.0,8.0,73,0.00,,---,0.00,VWS V14.01,2013-04-03 07:25:00,
2013-04-03 01:30:00,42.2,33.8,30.17,NNE,31,5.0,11.0,72,0.00,,---,0.00,VWS V14.01,2013-04-03 07:30:00,
2013-04-03 01:35:00,42.2,33.8,30.17,NE,49,6.0,6.0,72,0.00,,---,0.00,VWS V14.01,2013-04-03 07:35:00,
2013-04-03 01:40:00,42.3,33.2,30.17,NNE,31,7.0,10.0,70,0.00,,---,0.00,VWS V14.01,2013-04-03 07:40:00,
2013-04-03 01:45:00,42.4,33.3,30.16,NE,54,8.0,10.0,70,0.00,,---,0.00,VWS V14.01,2013-04-03 07:45:00,
2013-04-03 01:50:00,42.4,33.3,30.16,NNE,26,6.0,10.0,70,0.00,,---,0.00,VWS V14.01,2013-04-03 07:50:00,
2013-04-03 01:55:00,42.5,33.8,30.16,NE,42,4.0,10.0,71,0.00,,---,0.00,VWS V14.01,2013-04-03 07:55:00,
2013-04-03 02:00:00,42.5,33.1,30.15,NNE,22,8.0,10.0,69,0.00,,---,0.00,VWS V14.01,2013-04-03 08:00:00,
2013-04-03 02:05:00,42.5,33.1,30.15,WNW,295,2.0,5.0,69,0.01,,---,0.01,VWS V14.01,2013-04-03 08:05:00,
2013-04-03 02:10:00,42.6,32.8,30.15,NNE,13,5.0,11.0,68,0.01,,---,0.01,VWS V14.01,2013-04-03 08:10:00,
2013-04-03 02:15:00,42.7,32.5,30.16,NE,45,4.0,13.0,67,0.01,,---,0.01,VWS V14.01,2013-04-03 08:15:00,
2013-04-03 02:20:00,42.7,32.9,30.17,NNE,33,4.0,13.0,68,0.01,,---,0.01,VWS V14.01,2013-04-03 08:20:00,
2013-04-03 02:25:00,42.8,32.6,30.16,NNE,27,5.0,13.0,67,0.01,,---,0.01,VWS V14.01,2013-04-03 08:25:00,
2013-04-03 02:30:00,42.8,32.2,30.16,WNW,292,2.0,13.0,66,0.01,,---,0.01,VWS V14.01,2013-04-03 08:30:00,
2013-04-03 02:35:00,43.0,32.4,30.17,NE,48,5.0,6.0,66,0.01,,---,0.01,VWS V14.01,2013-04-03 08:35:00,
2013-04-03 02:40:00,42.9,32.3,30.16,NNE,33,7.0,10.0,66,0.01,,---,0.01,VWS V14.01,2013-04-03 08:40:00,
2013-04-03 02:45:00,43.0,32.4,30.15,NNE,28,7.0,15.0,66,0.01,,---,0.01,VWS V14.01,2013-04-03 08:45:00,
2013-04-03 02:50:00,43.0,32.4,30.15,NNE,30,4.0,15.0,66,0.01,,---,0.01,VWS V14.01,2013-04-03 08:50:00,
2013-04-03 02:55:00,43.0,32.1,30.16,NE,51,8.0,15.0,65,0.01,,---,0.01,VWS V14.01,2013-04-03 08:55:00,
2013-04-03 03:00:00,43.0,32.4,30.16,NE,51,4.0,15.0,66,0.01,,---,0.01,VWS V14.01,2013-04-03 09:00:00,
2013-04-03 03:05:00,43.0,32.4,30.16,NE,50,5.0,8.0,66,0.00,,---,0.01,VWS V14.01,2013-04-03 09:05:00,
2013-04-03 03:10:00,43.0,32.4,30.16,NNE,32,7.0,10.0,66,0.00,,---,0.01,VWS V14.01,2013-04-03 09:10:00,
2013-04-03 03:15:00,43.0,32.1,30.17,NE,42,7.0,11.0,65,0.00,,---,0.01,VWS V14.01,2013-04-03 09:15:00,
2013-04-03 03:20:00,43.0,32.1,30.17,NE,47,5.0,11.0,65,0.00,,---,0.01,VWS V14.01,2013-04-03 09:20:00,
2013-04-03 03:25:00,43.0,32.1,30.17,NNE,28,4.0,11.0,65,0.00,,---,0.01,VWS V14.01,2013-04-03 09:25:00,
2013-04-03 03:30:00,43.0,32.1,30.17,NNE,17,5.0,11.0,65,0.00,,---,0.01,VWS V14.01,2013-04-03 09:30:00,
2013-04-03 03:35:00,43.0,32.4,30.17,NE,51,5.0,6.0,66,0.00,,---,0.01,VWS V14.01,2013-04-03 09:35:00,
2013-04-03 03:40:00,42.9,32.3,30.17,NNE,14,4.0,8.0,66,0.00,,---,0.01,VWS V14.01,2013-04-03 09:40:00,
2013-04-03 03:45:00,42.9,32.0,30.17,NNE,26,7.0,8.0,65,0.00,,---,0.01,VWS V14.01,2013-04-03 09:45:00,
2013-04-03 03:50:00,42.9,32.0,30.17,NE,42,6.0,10.0,65,0.00,,---,0.01,VWS V14.01,2013-04-03 09:50:00,
2013-04-03 03:55:00,42.9,32.3,30.17,NE,46,4.0,10.0,66,0.00,,---,0.01,VWS V14.01,2013-04-03 09:55:00,
2013-04-03 04:00:00,42.9,32.0,30.17,NE,48,5.0,10.0,65,0.00,,---,0.01,VWS V14.01,2013-04-03 10:00:00,
2013-04-03 04:05:00,43.0,32.4,30.18,NNE,26,5.0,5.0,66,0.00,,---,0.01,VWS V14.01,2013-04-03 10:05:00,
2013-04-03 04:10:00,43.0,31.7,30.18,NE,35,7.0,8.0,64,0.00,,---,0.01,VWS V14.01,2013-04-03 10:10:00,
2013-04-03 04:15:00,43.0,31.7,30.19,NNE,28,10.0,11.0,64,0.00,,---,0.01,VWS V14.01,2013-04-03 10:15:00,
2013-04-03 04:20:00,43.1,31.8,30.19,NE,39,5.0,11.0,64,0.00,,---,0.01,VWS V14.01,2013-04-03 10:20:00,
2013-04-03 04:25:00,43.1,32.2,30.19,NNE,32,3.0,11.0,65,0.00,,---,0.01,VWS V14.01,2013-04-03 10:25:00,
2013-04-03 04:30:00,43.1,31.8,30.20,NE,36,3.0,11.0,64,0.00,,---,0.01,VWS V14.01,2013-04-03 10:30:00,
2013-04-03 04:35:00,43.1,31.4,30.20,NE,48,4.0,6.0,63,0.00,,---,0.01,VWS V14.01,2013-04-03 10:35:00,
2013-04-03 04:40:00,43.2,31.5,30.21,NE,37,3.0,8.0,63,0.00,,---,0.01,VWS V14.01,2013-04-03 10:40:00,
2013-04-03 04:45:00,43.2,31.5,30.21,NE,44,4.0,8.0,63,0.00,,---,0.01,VWS V14.01,2013-04-03 10:45:00,
2013-04-03 04:50:00,43.2,31.5,30.21,NE,40,4.0,8.0,63,0.00,,---,0.01,VWS V14.01,2013-04-03 10:50:00,
2013-04-03 04:55:00,43.2,31.5,30.20,NE,49,5.0,8.0,63,0.00,,---,0.01,VWS V14.01,2013-04-03 10:55:00,
2013-04-03 05:00:00,43.1,31.4,30.20,NE,42,5.0,10.0,63,0.00,,---,0.01,VWS V14.01,2013-04-03 11:00:00,
2013-04-03 05:05:00,43.1,31.0,30.20,NE,42,3.0,6.0,62,0.00,,---,0.01,VWS V14.01,2013-04-03 11:05:00,
2013-04-03 05:10:00,43.1,31.0,30.20,NNE,22,4.0,9.0,62,0.00,,---,0.01,VWS V14.01,2013-04-03 11:10:00,
2013-04-03 05:15:00,43.1,31.0,30.20,NE,46,8.0,10.0,62,0.00,,---,0.01,VWS V14.01,2013-04-03 11:15:00,
2013-04-03 05:20:00,43.0,30.5,30.19,NNE,26,7.0,12.0,61,0.00,,---,0.01,VWS V14.01,2013-04-03 11:20:00,
2013-04-03 05:25:00,42.9,30.4,30.20,NE,51,4.0,12.0,61,0.00,,---,0.01,VWS V14.01,2013-04-03 11:25:00,
2013-04-03 05:30:00,42.9,30.4,30.19,NE,53,4.0,12.0,61,0.00,,---,0.01,VWS V14.01,2013-04-03 11:30:00,
2013-04-03 05:35:00,42.9,30.0,30.20,NNE,21,3.0,8.0,60,0.00,,---,0.01,VWS V14.01,2013-04-03 11:35:00,
2013-04-03 05:40:00,42.9,30.0,30.20,NE,34,8.0,8.0,60,0.00,,---,0.01,VWS V14.01,2013-04-03 11:40:00,
2013-04-03 05:45:00,42.9,29.6,30.20,NE,35,10.0,12.0,59,0.00,,---,0.01,VWS V14.01,2013-04-03 11:45:00,
2013-04-03 05:50:00,43.0,29.2,30.20,NE,55,6.0,12.0,58,0.00,,---,0.01,VWS V14.01,2013-04-03 11:50:00,
2013-04-03 05:55:00,43.0,28.8,30.21,ENE,57,8.0,12.0,57,0.00,,---,0.01,VWS V14.01,2013-04-03 11:55:00,
2013-04-03 06:00:00,43.1,28.9,30.21,NE,35,5.0,12.0,57,0.00,,---,0.01,VWS V14.01,2013-04-03 12:00:00,
2013-04-03 06:05:00,43.1,28.9,30.21,NE,37,3.0,3.0,57,0.00,,---,0.01,VWS V14.01,2013-04-03 12:05:00,
2013-04-03 06:10:00,43.1,28.5,30.21,NNE,24,3.0,9.0,56,0.00,,---,0.01,VWS V14.01,2013-04-03 12:10:00,
2013-04-03 06:15:00,43.2,28.6,30.21,NE,38,3.0,13.0,56,0.00,,---,0.01,VWS V14.01,2013-04-03 12:15:00,
2013-04-03 06:20:00,43.2,28.6,30.21,NNE,19,3.0,16.0,56,0.00,,---,0.01,VWS V14.01,2013-04-03 12:20:00,
2013-04-03 06:25:00,43.3,28.2,30.21,NE,41,6.0,16.0,55,0.00,,---,0.01,VWS V14.01,2013-04-03 12:25:00,
2013-04-03 06:30:00,43.3,27.8,30.22,NE,46,4.0,16.0,54,0.00,,---,0.01,VWS V14.01,2013-04-03 12:30:00,
2013-04-03 06:35:00,43.4,27.9,30.21,NE,45,13.0,13.0,54,0.00,,---,0.01,VWS V14.01,2013-04-03 12:35:00,
2013-04-03 06:40:00,43.4,27.9,30.21,NE,46,6.0,15.0,54,0.00,,---,0.01,VWS V14.01,2013-04-03 12:40:00,
2013-04-03 06:45:00,43.4,27.9,30.22,NNE,26,8.0,15.0,54,0.00,,---,0.01,VWS V14.01,2013-04-03 12:45:00,
2013-04-03 06:50:00,43.5,27.5,30.22,ENE,57,5.0,15.0,53,0.00,,---,0.01,VWS V14.01,2013-04-03 12:50:00,
2013-04-03 06:55:00,43.5,27.5,30.22,NE,42,7.0,15.0,53,0.00,,---,0.01,VWS V14.01,2013-04-03 12:55:00,
2013-04-03 07:00:00,43.5,27.5,30.21,NE,53,10.0,15.0,53,0.00,,---,0.01,VWS V14.01,2013-04-03 13:00:00,
2013-04-03 07:05:00,43.5,27.5,30.21,ENE,58,11.0,21.0,53,0.00,,---,0.01,VWS V14.01,2013-04-03 13:05:00,
2013-04-03 07:10:00,43.5,27.5,30.21,NE,48,9.0,15.0,53,0.00,,---,0.01,VWS V14.01,2013-04-03 13:10:00,
2013-04-03 07:15:00,43.6,27.1,30.21,NNE,17,5.0,17.0,52,0.00,,---,0.01,VWS V14.01,2013-04-03 13:15:00,
2013-04-03 07:20:00,43.6,27.1,30.21,NE,53,7.0,17.0,52,0.00,,---,0.01,VWS V14.01,2013-04-03 13:20:00,
2013-04-03 07:25:00,43.6,27.1,30.21,NE,34,4.0,17.0,52,0.00,,---,0.01,VWS V14.01,2013-04-03 13:25:00,
2013-04-03 07:30:00,43.7,27.2,30.20,NE,39,11.0,17.0,52,0.00,,---,0.01,VWS V14.01,2013-04-03 13:30:00,
2013-04-03 07:35:00,43.7,26.8,30.20,ENE,67,9.0,17.0,51,0.00,,---,0.01,VWS V14.01,2013-04-03 13:35:00,
2013-04-03 07:40:00,43.8,27.3,30.20,NE,44,6.0,19.0,52,0.00,,---,0.01,VWS V14.01,2013-04-03 13:40:00,
2013-04-03 07:45:00,43.8,26.9,30.20,ENE,61,9.0,19.0,51,0.00,,---,0.01,VWS V14.01,2013-04-03 13:45:00,
2013-04-03 07:50:00,44.0,26.6,30.20,NE,37,7.0,19.0,50,0.00,,---,0.01,VWS V14.01,2013-04-03 13:50:00,
2013-04-03 07:55:00,44.0,27.0,30.21,East,94,7.0,19.0,51,0.00,,---,0.01,VWS V14.01,2013-04-03 13:55:00,
2013-04-03 08:00:00,44.1,27.1,30.21,NE,51,8.0,19.0,51,0.00,,---,0.01,VWS V14.01,2013-04-03 14:00:00,
2013-04-03 08:05:00,44.2,26.8,30.21,WNW,296,12.0,19.0,50,0.00,,---,0.01,VWS V14.01,2013-04-03 14:05:00,
2013-04-03 08:10:00,44.3,26.4,30.21,NE,34,10.0,15.0,49,0.00,,---,0.01,VWS V14.01,2013-04-03 14:10:00,
2013-04-03 08:15:00,44.4,26.9,30.21,NE,42,11.0,15.0,50,0.00,,---,0.01,VWS V14.01,2013-04-03 14:15:00,
2013-04-03 08:20:00,44.5,27.0,30.21,NE,34,7.0,15.0,50,0.00,,---,0.01,VWS V14.01,2013-04-03 14:20:00,
2013-04-03 08:25:00,44.7,26.7,30.22,WNW,296,7.0,15.0,49,0.00,,---,0.01,VWS V14.01,2013-04-03 14:25:00,
2013-04-03 08:30:00,44.8,26.3,30.22,ENE,62,10.0,15.0,48,0.00,,---,0.01,VWS V14.01,2013-04-03 14:30:00,
2013-04-03 08:35:00,44.8,26.8,30.22,ENE,61,5.0,15.0,49,0.00,,---,0.01,VWS V14.01,2013-04-03 14:35:00,
2013-04-03 08:40:00,45.0,26.5,30.22,NE,42,12.0,14.0,48,0.00,,---,0.01,VWS V14.01,2013-04-03 14:40:00,
2013-04-03 08:45:00,45.1,26.6,30.22,ENE,69,4.0,16.0,48,0.00,,---,0.01,VWS V14.01,2013-04-03 14:45:00,
2013-04-03 08:50:00,45.3,26.3,30.21,NE,46,6.0,16.0,47,0.00,,---,0.01,VWS V14.01,2013-04-03 14:50:00,
2013-04-03 08:55:00,45.4,26.9,30.22,ENE,66,12.0,16.0,48,0.00,,---,0.01,VWS V14.01,2013-04-03 14:55:00,
2013-04-03 09:00:00,45.4,25.9,30.22,NE,56,4.0,16.0,46,0.00,,---,0.01,VWS V14.01,2013-04-03 15:00:00,
2013-04-03 09:05:00,45.6,26.5,30.22,NE,42,3.0,16.0,47,0.00,,---,0.01,VWS V14.01,2013-04-03 15:05:00,
2013-04-03 09:10:00,45.8,26.7,30.22,NE,38,5.0,12.0,47,0.00,,---,0.01,VWS V14.01,2013-04-03 15:10:00,
2013-04-03 09:15:00,45.9,26.3,30.22,NE,49,8.0,15.0,46,0.00,,---,0.01,VWS V14.01,2013-04-03 15:15:00,
2013-04-03 09:20:00,45.8,25.7,30.22,NNE,32,11.0,15.0,45,0.00,,---,0.01,VWS V14.01,2013-04-03 15:20:00,
2013-04-03 09:25:00,45.8,26.2,30.22,NNE,30,11.0,15.0,46,0.00,,---,0.01,VWS V14.01,2013-04-03 15:25:00,
2013-04-03 09:30:00,45.9,26.3,30.22,NNE,31,9.0,15.0,46,0.00,,---,0.01,VWS V14.01,2013-04-03 15:30:00,
2013-04-03 09:35:00,46.1,26.5,30.21,NE,46,10.0,15.0,46,0.00,,---,0.01,VWS V14.01,2013-04-03 15:35:00,
2013-04-03 09:40:00,46.3,26.7,30.21,NNE,26,3.0,13.0,46,0.00,,---,0.01,VWS V14.01,2013-04-03 15:40:00,
2013-04-03 09:45:00,46.5,26.9,30.21,NE,50,7.0,13.0,46,0.00,,---,0.01,VWS V14.01,2013-04-03 15:45:00,
2013-04-03 09:50:00,46.7,27.0,30.21,NE,49,7.0,14.0,46,0.00,,---,0.01,VWS V14.01,2013-04-03 15:50:00,
2013-04-03 09:55:00,46.8,26.6,30.21,NE,48,6.0,14.0,45,0.00,,---,0.01,VWS V14.01,2013-04-03 15:55:00,
2013-04-03 10:00:00,47.0,26.2,30.21,NE,55,4.0,14.0,44,0.00,,---,0.01,VWS V14.01,2013-04-03 16:00:00,
2013-04-03 10:05:00,47.0,26.2,30.21,NE,51,8.0,10.0,44,0.00,,---,0.01,VWS V14.01,2013-04-03 16:05:00,
2013-04-03 10:10:00,47.0,26.8,30.21,NE,56,10.0,14.0,45,0.00,,---,0.01,VWS V14.01,2013-04-03 16:10:00,
2013-04-03 10:15:00,47.0,26.2,30.21,NE,53,9.0,17.0,44,0.00,,---,0.01,VWS V14.01,2013-04-03 16:15:00,
2013-04-03 10:20:00,47.0,26.2,30.21,NNE,13,11.0,17.0,44,0.00,,---,0.01,VWS V14.01,2013-04-03 16:20:00,
2013-04-03 10:25:00,47.1,26.3,30.21,ENE,57,11.0,17.0,44,0.00,,---,0.01,VWS V14.01,2013-04-03 16:25:00,
2013-04-03 10:30:00,47.1,25.8,30.21,NE,51,7.0,17.0,43,0.00,,---,0.01,VWS V14.01,2013-04-03 16:30:00,
2013-04-03 10:35:00,47.3,26.5,30.21,NNE,31,10.0,10.0,44,0.00,,---,0.01,VWS V14.01,2013-04-03 16:35:00,
2013-04-03 10:40:00,47.3,26.0,30.20,ENE,58,14.0,15.0,43,0.00,,---,0.01,VWS V14.01,2013-04-03 16:40:00,
2013-04-03 10:45:00,47.3,26.5,30.20,NE,40,5.0,16.0,44,0.00,,---,0.01,VWS V14.01,2013-04-03 16:45:00,
2013-04-03 10:50:00,47.5,26.1,30.20,NE,46,7.0,16.0,43,0.00,,---,0.01,VWS V14.01,2013-04-03 16:50:00,
2013-04-03 10:55:00,47.5,26.1,30.20,NE,36,9.0,16.0,43,0.00,,---,0.01,VWS V14.01,2013-04-03 16:55:00,
2013-04-03 11:00:00,47.5,25.6,30.20,NE,41,5.0,18.0,42,0.00,,---,0.01,VWS V14.01,2013-04-03 17:00:00,
2013-04-03 11:05:00,47.6,25.7,30.20,NE,44,11.0,11.0,42,0.00,,---,0.01,VWS V14.01,2013-04-03 17:05:00,
2013-04-03 11:10:00,47.8,26.4,30.20,ENE,59,7.0,12.0,43,0.00,,---,0.01,VWS V14.01,2013-04-03 17:10:00,
2013-04-03 11:15:00,47.9,25.9,30.20,NE,53,6.0,12.0,42,0.00,,---,0.01,VWS V14.01,2013-04-03 17:15:00,
2013-04-03 11:20:00,48.1,26.1,30.19,East,80,9.0,14.0,42,0.00,,---,0.01,VWS V14.01,2013-04-03 17:20:00,
2013-04-03 11:25:00,48.1,26.1,30.19,NNE,28,11.0,17.0,42,0.00,,---,0.01,VWS V14.01,2013-04-03 17:25:00,
2013-04-03 11:30:00,48.2,25.0,30.19,NE,47,8.0,17.0,40,0.00,,---,0.01,VWS V14.01,2013-04-03 17:30:00,
2013-04-03 11:35:00,48.3,26.9,30.20,NE,44,4.0,4.0,43,0.00,,---,0.01,VWS V14.01,2013-04-03 17:35:00,
2013-04-03 11:40:00,48.5,25.9,30.20,NNE,26,8.0,14.0,41,0.00,,---,0.01,VWS V14.01,2013-04-03 17:40:00,
2013-04-03 11:45:00,48.5,26.5,30.20,NE,45,4.0,14.0,42,0.00,,---,0.01,VWS V14.01,2013-04-03 17:45:00,
2013-04-03 11:50:00,48.6,26.0,30.20,NE,40,7.0,15.0,41,0.00,,---,0.01,VWS V14.01,2013-04-03 17:50:00,
2013-04-03 11:55:00,48.7,25.5,30.20,NE,50,11.0,15.0,40,0.00,,---,0.01,VWS V14.01,2013-04-03 17:55:00,
2013-04-03 12:00:00,48.7,25.5,30.20,ENE,63,8.0,16.0,40,0.00,,---,0.01,VWS V14.01,2013-04-03 18:00:00,
2013-04-03 12:05:00,48.8,26.2,30.20,NE,53,12.0,12.0,41,0.00,,---,0.01,VWS V14.01,2013-04-03 18:05:00,
2013-04-03 12:10:00,48.9,26.8,30.20,NE,42,5.0,12.0,42,0.00,,---,0.01,VWS V14.01,2013-04-03 18:10:00,
2013-04-03 12:15:00,49.1,27.6,30.20,ENE,57,9.0,12.0,43,0.00,,---,0.01,VWS V14.01,2013-04-03 18:15:00,
2013-04-03 12:20:00,49.1,27.0,30.20,NE,35,8.0,12.0,42,0.00,,---,0.01,VWS V14.01,2013-04-03 18:20:00,
2013-04-03 12:25:00,49.1,27.0,30.20,NE,38,5.0,13.0,42,0.00,,---,0.01,VWS V14.01,2013-04-03 18:25:00,
2013-04-03 12:30:00,49.0,27.5,30.20,East,90,7.0,15.0,43,0.00,,---,0.01,VWS V14.01,2013-04-03 18:30:00,
2013-04-03 12:35:00,48.8,27.9,30.20,NE,46,7.0,12.0,44,0.00,,---,0.01,VWS V14.01,2013-04-03 18:35:00,
2013-04-03 12:40:00,48.8,29.5,30.20,NE,37,8.0,12.0,47,0.00,,---,0.01,VWS V14.01,2013-04-03 18:40:00,
2013-04-03 12:45:00,48.8,29.0,30.20,ENE,60,12.0,13.0,46,0.00,,---,0.01,VWS V14.01,2013-04-03 18:45:00,
2013-04-03 12:50:00,48.7,29.4,30.20,ENE,61,10.0,14.0,47,0.00,,---,0.01,VWS V14.01,2013-04-03 18:50:00,
2013-04-03 12:55:00,48.7,28.3,30.20,NE,51,7.0,15.0,45,0.00,,---,0.01,VWS V14.01,2013-04-03 18:55:00,
2013-04-03 13:00:00,48.7,27.8,30.21,ENE,57,7.0,15.0,44,0.00,,---,0.01,VWS V14.01,2013-04-03 19:00:00,
2013-04-03 13:05:00,48.8,29.0,30.21,ENE,75,4.0,5.0,46,0.00,,---,0.01,VWS V14.01,2013-04-03 19:05:00,
2013-04-03 13:10:00,49.0,29.1,30.21,NE,52,3.0,10.0,46,0.00,,---,0.01,VWS V14.01,2013-04-03 19:10:00,
2013-04-03 13:15:00,49.0,28.6,30.21,NE,44,4.0,10.0,45,0.00,,---,0.01,VWS V14.01,2013-04-03 19:15:00,
2013-04-03 13:20:00,49.2,29.9,30.21,ENE,57,12.0,15.0,47,0.00,,---,0.01,VWS V14.01,2013-04-03 19:20:00,
2013-04-03 13:25:00,49.3,29.4,30.21,NE,41,5.0,15.0,46,0.00,,---,0.01,VWS V14.01,2013-04-03 19:25:00,
2013-04-03 13:30:00,49.3,27.8,30.21,NNE,32,8.0,15.0,43,0.00,,---,0.01,VWS V14.01,2013-04-03 19:30:00,
2013-04-03 13:35:00,49.4,28.4,30.21,NNE,28,8.0,9.0,44,0.00,,---,0.01,VWS V14.01,2013-04-03 19:35:00,
2013-04-03 13:40:00,49.5,28.0,30.20,NNE,28,4.0,15.0,43,0.00,,---,0.01,VWS V14.01,2013-04-03 19:40:00,
2013-04-03 13:45:00,49.6,28.6,30.20,ENE,71,5.0,15.0,44,0.00,,---,0.01,VWS V14.01,2013-04-03 19:45:00,
2013-04-03 13:50:00,49.6,28.6,30.20,NE,35,3.0,15.0,44,0.00,,---,0.01,VWS V14.01,2013-04-03 19:50:00,
2013-04-03 13:55:00,49.7,29.2,30.20,NE,50,7.0,15.0,45,0.00,,---,0.01,VWS V14.01,2013-04-03 19:55:00,
2013-04-03 14:00:00,49.7,29.2,30.20,ENE,61,10.0,15.0,45,0.00,,---,0.01,VWS V14.01,2013-04-03 20:00:00,
2013-04-03 14:05:00,49.7,29.8,30.20,ENE,62,5.0,9.0,46,0.00,,---,0.01,VWS V14.01,2013-04-03 20:05:00,
2013-04-03 14:10:00,49.7,30.3,30.20,NE,44,4.0,9.0,47,0.00,,---,0.01,VWS V14.01,2013-04-03 20:10:00,
2013-04-03 14:15:00,49.7,30.8,30.19,NE,42,1.0,9.0,48,0.00,,---,0.01,VWS V14.01,2013-04-03 20:15:00,
2013-04-03 14:20:00,49.7,31.3,30.19,NE,49,2.0,9.0,49,0.00,,---,0.01,VWS V14.01,2013-04-03 20:20:00,
2013-04-03 14:25:00,49.7,31.8,30.19,NE,38,6.0,9.0,50,0.00,,---,0.01,VWS V14.01,2013-04-03 20:25:00,
2013-04-03 14:30:00,49.7,31.8,30.18,NNE,21,5.0,9.0,50,0.00,,---,0.01,VWS V14.01,2013-04-03 20:30:00,
2013-04-03 14:35:00,49.6,30.2,30.18,NE,34,7.0,7.0,47,0.00,,---,0.01,VWS V14.01,2013-04-03 20:35:00,
2013-04-03 14:40:00,49.6,32.7,30.18,NE,34,10.0,10.0,52,0.00,,---,0.01,VWS V14.01,2013-04-03 20:40:00,
2013-04-03 14:45:00,49.5,32.1,30.18,NE,44,2.0,10.0,51,0.00,,---,0.01,VWS V14.01,2013-04-03 20:45:00,
2013-04-03 14:50:00,49.4,31.1,30.18,NE,46,7.0,10.0,49,0.00,,---,0.01,VWS V14.01,2013-04-03 20:50:00,
2013-04-03 14:56:00,49.4,32.0,30.18,NNE,29,7.0,10.0,51,0.00,,---,0.01,VWS V14.01,2013-04-03 20:56:00,
2013-04-03 15:01:00,49.2,31.4,30.17,NE,44,6.0,11.0,50,0.00,,---,0.01,VWS V14.01,2013-04-03 21:01:00,
2013-04-03 15:06:00,49.1,31.8,30.17,NE,51,7.0,10.0,51,0.00,,---,0.01,VWS V14.01,2013-04-03 21:06:00,
2013-04-03 15:11:00,49.1,31.3,30.17,NE,54,4.0,10.0,50,0.00,,---,0.01,VWS V14.01,2013-04-03 21:11:00,
2013-04-03 15:16:00,49.1,32.7,30.16,NE,51,4.0,10.0,53,0.00,,---,0.01,VWS V14.01,2013-04-03 21:16:00,
2013-04-03 15:21:00,49.2,32.3,30.16,East,94,2.0,10.0,52,0.00,,---,0.01,VWS V14.01,2013-04-03 21:21:00,
2013-04-03 15:26:00,49.3,32.4,30.16,NE,43,2.0,10.0,52,0.01,,---,0.02,VWS V14.01,2013-04-03 21:26:00,
2013-04-03 15:32:00,49.4,32.5,30.16,ENE,65,5.0,10.0,52,0.01,,---,0.02,VWS V14.01,2013-04-03 21:32:00,
2013-04-03 15:37:00,49.5,34.0,30.16,ENE,71,3.0,6.0,55,0.01,,---,0.02,VWS V14.01,2013-04-03 21:37:00,
2013-04-03 15:42:00,49.7,32.3,30.16,NE,53,1.0,9.0,51,0.01,,---,0.02,VWS V14.01,2013-04-03 21:42:00,
2013-04-03 15:47:00,49.8,32.4,30.15,NE,49,3.0,9.0,51,0.01,,---,0.02,VWS V14.01,2013-04-03 21:47:00,
2013-04-03 15:52:00,49.9,32.0,30.15,ENE,57,5.0,9.0,50,0.01,,---,0.02,VWS V14.01,2013-04-03 21:52:00,
2013-04-03 15:57:00,50.0,33.1,30.15,ENE,67,0.0,9.0,52,0.01,,---,0.02,VWS V14.01,2013-04-03 21:57:00,
2013-04-03 16:02:00,50.1,32.2,30.14,NE,52,5.0,9.0,50,0.01,,---,0.02,VWS V14.01,2013-04-03 22:02:00,
2013-04-03 16:07:00,50.3,32.4,30.14,East,80,1.0,4.0,50,0.01,,---,0.02,VWS V14.01,2013-04-03 22:07:00,
2013-04-03 16:12:00,50.3,33.8,30.13,ENE,76,3.0,4.0,53,0.01,,---,0.02,VWS V14.01,2013-04-03 22:12:00,
2013-04-03 16:17:00,50.1,35.0,30.13,East,90,1.0,4.0,56,0.01,,---,0.02,VWS V14.01,2013-04-03 22:17:00,
2013-04-03 16:22:00,49.9,34.8,30.12,East,89,3.0,6.0,56,0.01,,---,0.02,VWS V14.01,2013-04-03 22:22:00,
2013-04-03 16:27:00,49.6,35.0,30.12,ENE,77,0.0,6.0,57,0.01,,---,0.02,VWS V14.01,2013-04-03 22:27:00,
2013-04-03 16:32:00,49.5,35.3,30.12,ENE,61,2.0,6.0,58,0.01,,---,0.02,VWS V14.01,2013-04-03 22:32:00,
2013-04-03 16:37:00,49.4,34.8,30.12,ENE,66,2.0,2.0,57,0.00,,---,0.02,VWS V14.01,2013-04-03 22:37:00,
2013-04-03 16:42:00,49.4,35.3,30.12,NE,47,0.0,5.0,58,0.00,,---,0.02,VWS V14.01,2013-04-03 22:42:00,
2013-04-03 16:47:00,49.6,33.7,30.11,NE,55,4.0,6.0,54,0.00,,---,0.02,VWS V14.01,2013-04-03 22:47:00,
2013-04-03 16:52:00,50.1,31.2,30.11,NE,35,4.0,11.0,48,0.00,,---,0.02,VWS V14.01,2013-04-03 22:52:00,
2013-04-03 16:57:00,50.6,30.6,30.11,NE,38,3.0,11.0,46,0.00,,---,0.02,VWS V14.01,2013-04-03 22:57:00,
2013-04-03 17:02:00,50.9,29.8,30.11,NNE,18,6.0,11.0,44,0.00,,---,0.02,VWS V14.01,2013-04-03 23:02:00,
2013-04-03 17:07:00,51.2,30.0,30.11,NNE,24,3.0,7.0,44,0.00,,---,0.02,VWS V14.01,2013-04-03 23:07:00,
2013-04-03 17:12:00,51.3,29.6,30.12,NNE,23,1.0,7.0,43,0.00,,---,0.02,VWS V14.01,2013-04-03 23:12:00,
2013-04-03 17:17:00,51.4,29.7,30.11,NNE,27,4.0,7.0,43,0.00,,---,0.02,VWS V14.01,2013-04-03 23:17:00,
2013-04-03 17:22:00,51.5,29.8,30.11,NE,50,5.0,10.0,43,0.00,,---,0.02,VWS V14.01,2013-04-03 23:22:00,
2013-04-03 17:27:00,51.6,29.9,30.12,NE,52,3.0,10.0,43,0.00,,---,0.02,VWS V14.01,2013-04-03 23:27:00,
2013-04-03 17:32:00,51.6,29.3,30.12,North,11,3.0,10.0,42,0.00,,---,0.02,VWS V14.01,2013-04-03 23:32:00,
2013-04-03 17:37:00,51.6,29.3,30.12,WNW,294,4.0,5.0,42,0.00,,---,0.02,VWS V14.01,2013-04-03 23:37:00,
2013-04-03 17:42:00,51.6,29.3,30.12,NNE,26,2.0,7.0,42,0.00,,---,0.02,VWS V14.01,2013-04-03 23:42:00,
2013-04-03 17:47:00,51.6,28.7,30.12,NNE,28,3.0,9.0,41,0.00,,---,0.02,VWS V14.01,2013-04-03 23:47:00,
2013-04-03 17:52:00,51.6,29.3,30.12,NNE,32,7.0,9.0,42,0.00,,---,0.02,VWS V14.01,2013-04-03 23:52:00,
2013-04-03 17:57:00,51.6,28.7,30.11,ENE,59,5.0,10.0,41,0.00,,---,0.02,VWS V14.01,2013-04-03 23:57:00,
2013-04-03 18:02:00,51.6,29.3,30.11,NE,44,5.0,10.0,42,0.00,,---,0.02,VWS V14.01,2013-04-04 00:02:00,
2013-04-03 18:07:00,51.6,28.1,30.11,NE,36,6.0,10.0,40,0.00,,---,0.02,VWS V14.01,2013-04-04 00:07:00,
2013-04-03 18:12:00,51.6,29.3,30.11,NE,43,4.0,10.0,42,0.00,,---,0.02,VWS V14.01,2013-04-04 00:12:00,
2013-04-03 18:17:00,51.5,29.2,30.10,NE,38,6.0,10.0,42,0.00,,---,0.02,VWS V14.01,2013-04-04 00:17:00,
2013-04-03 18:22:00,51.5,29.2,30.11,NE,44,4.0,10.0,42,0.00,,---,0.02,VWS V14.01,2013-04-04 00:22:00,
2013-04-03 18:27:00,51.4,29.1,30.11,NE,42,5.0,10.0,42,0.00,,---,0.02,VWS V14.01,2013-04-04 00:27:00,
2013-04-03 18:32:00,51.3,29.6,30.11,NE,36,5.0,10.0,43,0.00,,---,0.02,VWS V14.01,2013-04-04 00:32:00,
2013-04-03 18:37:00,51.3,30.1,30.12,NE,38,0.0,4.0,44,0.00,,---,0.02,VWS V14.01,2013-04-04 00:37:00,
2013-04-03 18:42:00,51.2,30.0,30.12,NE,38,3.0,6.0,44,0.00,,---,0.02,VWS V14.01,2013-04-04 00:42:00,
2013-04-03 18:47:00,51.1,30.0,30.12,NNE,19,2.0,6.0,44,0.00,,---,0.02,VWS V14.01,2013-04-04 00:47:00,
2013-04-03 18:52:00,51.1,30.0,30.13,WNW,287,4.0,11.0,44,0.00,,---,0.02,VWS V14.01,2013-04-04 00:52:00,
2013-04-03 18:57:00,51.1,30.0,30.13,NNE,19,2.0,11.0,44,0.00,,---,0.02,VWS V14.01,2013-04-04 00:57:00,
2013-04-03 19:02:00,51.1,30.0,30.12,NNE,30,3.0,11.0,44,0.00,,---,0.02,VWS V14.01,2013-04-04 01:02:00,
2013-04-03 19:07:00,51.1,30.0,30.12,ENE,57,3.0,7.0,44,0.00,,---,0.02,VWS V14.01,2013-04-04 01:07:00,
2013-04-03 19:12:00,51.1,30.5,30.13,NNE,19,3.0,7.0,45,0.00,,---,0.02,VWS V14.01,2013-04-04 01:12:00,
2013-04-03 19:17:00,51.0,30.4,30.12,WNW,294,1.0,7.0,45,0.00,,---,0.02,VWS V14.01,2013-04-04 01:17:00,
2013-04-03 19:22:00,50.9,30.3,30.12,NE,38,6.0,10.0,45,0.00,,---,0.02,VWS V14.01,2013-04-04 01:22:00,
2013-04-03 19:27:00,50.9,30.3,30.12,WNW,294,10.0,12.0,45,0.00,,---,0.02,VWS V14.01,2013-04-04 01:27:00,
2013-04-03 19:32:00,51.0,30.4,30.12,WNW,291,3.0,12.0,45,0.00,,---,0.02,VWS V14.01,2013-04-04 01:32:00,
2013-04-03 19:37:00,50.9,30.9,30.12,NE,34,6.0,8.0,46,0.00,,---,0.02,VWS V14.01,2013-04-04 01:37:00,
2013-04-03 19:42:00,50.9,30.9,30.12,NE,34,2.0,9.0,46,0.00,,---,0.02,VWS V14.01,2013-04-04 01:42:00,
2013-04-03 19:47:00,50.9,30.9,30.12,WNW,294,4.0,9.0,46,0.00,,---,0.02,VWS V14.01,2013-04-04 01:47:00,
2013-04-03 19:52:00,50.9,30.3,30.12,WNW,295,3.0,9.0,45,0.00,,---,0.02,VWS V14.01,2013-04-04 01:52:00,
2013-04-03 19:57:00,50.9,30.3,30.13,NNE,27,5.0,9.0,45,0.00,,---,0.02,VWS V14.01,2013-04-04 01:57:00,
2013-04-03 20:02:00,50.9,30.3,30.12,NNE,28,6.0,9.0,45,0.00,,---,0.02,VWS V14.01,2013-04-04 02:02:00,
2013-04-03 20:07:00,51.0,30.4,30.13,NNE,20,4.0,9.0,45,0.00,,---,0.02,VWS V14.01,2013-04-04 02:07:00,
2013-04-03 20:12:00,51.0,30.4,30.13,NE,37,4.0,9.0,45,0.00,,---,0.02,VWS V14.01,2013-04-04 02:12:00,
2013-04-03 20:17:00,51.0,30.4,30.13,NE,34,4.0,9.0,45,0.00,,---,0.02,VWS V14.01,2013-04-04 02:17:00,
2013-04-03 20:22:00,51.0,30.4,30.14,NNE,32,3.0,9.0,45,0.00,,---,0.02,VWS V14.01,2013-04-04 02:22:00,
2013-04-03 20:27:00,51.0,30.4,30.14,NNE,32,3.0,9.0,45,0.00,,---,0.02,VWS V14.01,2013-04-04 02:27:00,
2013-04-03 20:32:00,50.9,30.9,30.14,NNE,16,2.0,9.0,46,0.00,,---,0.02,VWS V14.01,2013-04-04 02:32:00,
2013-04-03 20:37:00,50.9,30.9,30.13,NE,39,4.0,8.0,46,0.00,,---,0.02,VWS V14.01,2013-04-04 02:37:00,
2013-04-03 20:42:00,50.9,30.9,30.13,NNE,25,6.0,11.0,46,0.00,,---,0.02,VWS V14.01,2013-04-04 02:42:00,
2013-04-03 20:47:00,50.9,30.3,30.13,NE,44,6.0,11.0,45,0.00,,---,0.02,VWS V14.01,2013-04-04 02:47:00,
2013-04-03 20:52:00,50.9,30.9,30.13,WNW,294,4.0,11.0,46,0.00,,---,0.02,VWS V14.01,2013-04-04 02:52:00,
2013-04-03 20:57:00,50.8,30.2,30.13,NE,42,5.0,11.0,45,0.00,,---,0.02,VWS V14.01,2013-04-04 02:57:00,
2013-04-03 21:02:00,50.8,30.8,30.13,NE,42,5.0,11.0,46,0.00,,---,0.02,VWS V14.01,2013-04-04 03:02:00,
2013-04-03 21:07:00,50.8,30.8,30.13,NNE,28,4.0,8.0,46,0.00,,---,0.02,VWS V14.01,2013-04-04 03:07:00,
2013-04-03 21:12:00,50.7,30.7,30.13,NE,46,3.0,10.0,46,0.00,,---,0.02,VWS V14.01,2013-04-04 03:12:00,
2013-04-03 21:17:00,50.7,30.7,30.13,NE,39,6.0,14.0,46,0.00,,---,0.02,VWS V14.01,2013-04-04 03:17:00,
2013-04-03 21:22:00,50.6,30.6,30.12,NE,38,8.0,14.0,46,0.00,,---,0.02,VWS V14.01,2013-04-04 03:22:00,
2013-04-03 21:27:00,50.5,31.0,30.12,NE,44,9.0,14.0,47,0.00,,---,0.02,VWS V14.01,2013-04-04 03:27:00,
2013-04-03 21:32:00,50.4,31.0,30.12,ENE,58,4.0,14.0,47,0.00,,---,0.02,VWS V14.01,2013-04-04 03:32:00,
2013-04-03 21:37:00,50.3,30.9,30.11,NNE,32,3.0,7.0,47,0.00,,---,0.02,VWS V14.01,2013-04-04 03:37:00,
2013-04-03 21:42:00,50.2,30.2,30.12,NNE,22,4.0,9.0,46,0.00,,---,0.02,VWS V14.01,2013-04-04 03:42:00,
2013-04-03 21:47:00,50.3,30.3,30.12,NNE,30,0.0,12.0,46,0.00,,---,0.02,VWS V14.01,2013-04-04 03:47:00,
2013-04-03 21:52:00,50.3,30.3,30.12,North,360,4.0,12.0,46,0.00,,---,0.02,VWS V14.01,2013-04-04 03:52:00,
2013-04-03 21:57:00,50.3,29.8,30.12,NNE,27,6.0,12.0,45,0.00,,---,0.02,VWS V14.01,2013-04-04 03:57:00,
2013-04-03 22:00:00,50.2,30.2,30.12,NNE,33,5.0,12.0,46,0.00,,---,0.02,VWS V14.01,2013-04-04 04:00:00,
2013-04-03 22:05:00,50.2,29.7,30.12,NE,40,8.0,9.0,45,0.00,,---,0.02,VWS V14.01,2013-04-04 04:05:00,
2013-04-03 22:10:00,50.3,29.8,30.12,NE,39,7.0,9.0,45,0.00,,---,0.02,VWS V14.01,2013-04-04 04:10:00,
2013-04-03 22:15:00,50.2,29.7,30.12,NE,38,5.0,9.0,45,0.00,,---,0.02,VWS V14.01,2013-04-04 04:15:00,
2013-04-03 22:20:00,50.2,29.7,30.12,NE,51,3.0,9.0,45,0.00,,---,0.02,VWS V14.01,2013-04-04 04:20:00,
2013-04-03 22:25:00,50.2,29.7,30.13,NE,40,4.0,9.0,45,0.00,,---,0.02,VWS V14.01,2013-04-04 04:25:00,
2013-04-03 22:30:00,50.2,29.7,30.13,NNE,22,5.0,9.0,45,0.00,,---,0.02,VWS V14.01,2013-04-04 04:30:00,
2013-04-03 22:35:00,50.1,29.6,30.12,NNE,32,8.0,8.0,45,0.00,,---,0.02,VWS V14.01,2013-04-04 04:35:00,
2013-04-03 22:40:00,50.1,29.6,30.12,NE,44,4.0,8.0,45,0.00,,---,0.02,VWS V14.01,2013-04-04 04:40:00,
2013-04-03 22:45:00,50.1,29.6,30.11,NE,42,3.0,10.0,45,0.00,,---,0.02,VWS V14.01,2013-04-04 04:45:00,
2013-04-03 22:50:00,50.0,29.5,30.11,NE,36,1.0,10.0,45,0.00,,---,0.02,VWS V14.01,2013-04-04 04:50:00,
2013-04-03 22:55:00,50.0,30.0,30.11,NE,36,5.0,10.0,46,0.00,,---,0.02,VWS V14.01,2013-04-04 04:55:00,
2013-04-03 23:00:00,49.9,30.0,30.11,NNE,30,3.0,10.0,46,0.00,,---,0.02,VWS V14.01,2013-04-04 05:00:00,
2013-04-03 23:05:00,49.8,30.4,30.11,NE,38,4.0,4.0,47,0.00,,---,0.00,VWS V14.01,2013-04-04 05:05:00,
2013-04-03 23:10:00,49.7,31.3,30.11,NE,44,5.0,9.0,49,0.00,,---,0.00,VWS V14.01,2013-04-04 05:10:00,
2013-04-03 23:15:00,49.5,31.1,30.11,NE,50,5.0,11.0,49,0.00,,---,0.00,VWS V14.01,2013-04-04 05:15:00,
2013-04-03 23:20:00,49.3,31.0,30.10,NE,47,5.0,11.0,49,0.00,,---,0.00,VWS V14.01,2013-04-04 05:20:00,
2013-04-03 23:25:00,49.2,31.4,30.10,NNE,21,5.0,11.0,50,0.00,,---,0.00,VWS V14.01,2013-04-04 05:25:00,
2013-04-03 23:30:00,49.1,31.8,30.10,NNE,32,7.0,11.0,51,0.00,,---,0.00,VWS V14.01,2013-04-04 05:30:00,
2013-04-03 23:35:00,49.0,31.2,30.10,NE,48,5.0,5.0,50,0.00,,---,0.00,VWS V14.01,2013-04-04 05:35:00,
2013-04-03 23:40:00,49.0,31.2,30.09,WNW,295,1.0,7.0,50,0.00,,---,0.00,VWS V14.01,2013-04-04 05:40:00,
2013-04-03 23:45:00,48.9,31.6,30.10,NE,47,3.0,7.0,51,0.00,,---,0.00,VWS V14.01,2013-04-04 05:45:00,
2013-04-03 23:50:00,48.8,31.5,30.09,NNE,33,4.0,7.0,51,0.00,,---,0.00,VWS V14.01,2013-04-04 05:50:00,
2013-04-03 23:55:00,48.8,31.5,30.10,NE,53,5.0,7.0,51,0.00,,---,0.00,VWS V14.01,2013-04-04 05:55:00,